Location: Columbia
(38.9520°N, 92.3340°W)
Time: 22:32:10
(UTC-05:00)

Cosmos 2219 Rocket - Visible Passes

Search period start: 31 July 2015 00:00
Search period end: 10 August 2015 00:00
Orbit: 827 x 848 km, 71.0° (Epoch: 31 July)

Date Brightness Start Highest point End Pass type
(mag) Time Alt. Az. Time Alt. Az. Time Alt. Az.
31 Jul 5.2 21:23:39 10° W 21:24:50 10° W 21:25:35 10° WSW visible
01 Aug 5.1 21:06:33 10° WNW 21:08:35 12° W 21:10:13 10° WSW visible
02 Aug 5.0 20:49:45 10° WNW 20:52:19 13° W 20:54:31 10° WSW visible
